{"data":{"norad_id":65228,"epoch":"2026-05-25T03:55:42.396960Z","epoch_age_seconds":57941,"freshness":"FRESH","line1":"1 65228U 25178A   26145.16368515  .00000030  00000+0  36505-4 0  9994","line2":"2 65228  86.5002  21.2960 0001630  87.2074 272.9246 13.24408827 37263","mean_motion":13.24408827,"eccentricity":0.000163,"inclination_deg":86.5002,"raan_deg":21.296,"arg_perigee_deg":87.2074,"mean_anomaly_deg":272.9246,"bstar":3.6505e-5,"rev_number":3726,"period_min":108.72775616135,"perigee_km":1166.6966328392,"apogee_km":1169.1566495863,"semimajor_km":7546.0636412127,"source":"CELESTRAK","updated_at":"2026-05-25T13:38:05.252510Z"}}